Tracking 19219 objects as of 20-Jul-2018
HD Live streaming from Space Station
objects crossing your sky now

FENGYUN 1C DEB

Track FENGYUN 1C DEB now!
10-day predictions


NORAD ID: 30358
Int'l Code: 1999-025ABV
Perigee: 804.1 km
Apogee: 945.3 km
Inclination: 98.7 °
Period: 102.3 minutes
Semi major axis: 7245 km
RCS: 0.037 m2 (small)
Launch date: May 10, 1999
Source: People's Republic of China (PRC)
Launch site: Taiyaun Space Center, China (TSC)

Note: This is SATELLITE DEBRIS
aabbcc
Your satellite tracking list
Your tracking list is empty




NASA's NSSDC Master Catalog

Two Line Element Set (TLE):
1 30358U 99025ABV 18200.60396564 +.00000265 +00000-0 +17481-3 0  9991
2 30358 098.7445 091.4123 0097403 330.8365 091.8463 14.07612398587900
Source of the keplerian elements: AFSPC